Wind_Speed
27 27 31 32 31 30 29 29 31 33 32 32 35 36 35 39 45 45 40 38 41 46 47 42 38 37 36 34 33 34 34 32 28 22 20 24 27 30 31 30 28 26 25 24 24 23 22 23 24 26 28 30 32 34 36 37 39 41 42 44 45 46 47 49 50 52 54 55 55 55 55 56 57 59 62 64 65 66 66 65 63 61 60 58 57 57
27 29 32 29 27 28 28 29 32 33 32 33 35 35 36 42 50 46 37 41 45 43 45 40 34 35 33 31 33 34 33 31 26 19 19 24 27 30 30 29 25 23 22 21 21 21 23 26 29 31 34 37 39 41 43 44 46 48 50 51 52 52 53 54 56 58 60 61 61 61 60 61 62 63 64 65 65 65 65 64 62 61 59 58 57 56
29 30 29 26 27 27 27 30 32 33 33 35 36 35 40 45 50 48 42 44 43 38 40 36 32 32 30 32 34 33 32 28 21 16 20 25 28 29 27 25 22 20 19 19 21 24 29 33 37 40 43 46 48 50 52 54 56 58 59 61 61 61 61 62 63 63 64 64 64 63 63 63 63 63 63 63 63 63 63 62 60 59 58 57 56 55
29 27 26 26 27 27 27 29 33 36 37 40 37 37 44 46 43 46 49 46 39 34 33 32 32 29 28 34 33 30 31 26 18 17 21 25 26 26 24 21 19 18 19 23 28 34 40 45 49 53 55 56 58 59 61 63 64 65 67 68 68 68 68 68 68 67 67 65 62 60 60 61 61 61 60 59 60 60 60 60 58 57 57 56 55 54
27 24 25 26 27 27 27 31 37 41 44 42 37 38 45 44 41 44 47 43 38 35 30 29 28 22 26 32 29 29 28 21 17 19 22 24 25 23 21 18 17 20 26 33 41 48 55 59 62 64 64 65 65 66 67 68 69 70 71 71 71 71 70 70 70 69 67 62 57 55 54 55 56 56 56 56 56 56 57 57 56 55 55 54 52 52
25 24 27 28 28 27 29 35 39 41 46 43 39 42 41 40 45 46 42 37 34 32 30 26 17 15 29 33 29 33 26 17 18 20 22 24 23 20 17 17 21 28 37 46 54 61 65 66 67 68 69 69 70 70 70 71 71 71 71 71 71 70 69 69 68 66 62 56 51 49 49 49 50 51 53 54 55 55 55 54 54 53 52 50 49 48
24 24 27 30 29 28 32 38 39 41 44 41 40 42 39 41 48 45 38 31 26 27 29 24 11 14 32 34 33 35 20 16 18 19 22 23 20 17 17 23 31 39 48 57 63 67 68 69 69 70 70 70 71 70 70 70 69 68 67 66 66 66 65 65 63 58 53 47 44 43 43 43 44 45 47 49 51 52 52 51 51 51 50 48 46 45
22 23 27 31 30 30 37 39 38 41 40 39 42 41 42 47 47 44 40 29 24 30 31 26 19 17 24 29 33 30 13 13 18 20 22 22 20 19 24 33 42 50 58 63 66 68 68 68 69 69 68 68 68 67 66 65 64 63 60 58 58 57 57 56 54 50 46 42 38 37 37 37 38 40 42 43 45 46 48 49 49 48 47 46 45 44
23 24 29 32 30 31 38 37 38 39 38 41 42 39 45 49 45 45 40 29 27 29 24 23 23 16 17 26 27 21 13 11 14 16 18 19 22 29 38 47 56 61 63 64 65 66 67 67 66 64 64 64 64 63 62 60 58 55 52 49 49 49 49 48 46 44 41 36 34 33 34 35 36 38 40 41 42 43 44 47 48 47 45 44 43 43
24 25 30 32 28 31 36 36 38 38 39 43 39 40 47 46 44 42 32 27 27 20 14 20 26 18 12 18 19 18 17 11 12 17 20 27 36 45 53 60 63 63 61 61 63 64 64 61 59 58 58 59 58 57 55 52 48 45 44 43 42 43 43 43 42 41 38 36 35 35 36 37 38 39 40 41 41 42 43 45 46 47 46 44 42 42
26 25 30 31 27 31 37 38 37 36 38 40 39 45 49 45 41 29 21 26 19 8 10 23 35 28 10 8 17 20 17 13 19 27 32 41 50 56 60 61 59 58 59 60 62 60 57 54 54 54 56 56 54 52 49 45 42 40 39 39 38 39 40 41 42 43 43 43 43 43 43 44 44 43 43 42 42 42 42 43 45 46 47 45 43 42
27 24 30 31 28 33 40 40 37 36 37 37 40 46 46 43 35 18 16 22 8 2 16 31 38 29 8 5 16 16 14 17 28 37 44 51 55 60 62 59 57 57 60 61 61 57 54 54 55 56 55 55 54 51 47 45 43 41 40 38 38 38 38 39 42 45 46 47 48 49 50 50 49 49 47 46 44 42 42 43 43 45 46 46 44 43
28 25 29 30 29 37 42 41 39 39 37 34 39 43 32 24 21 11 10 13 6 10 28 36 28 15 7 13 19 14 14 25 36 44 49 52 56 61 60 58 59 61 62 60 56 54 54 55 56 55 53 52 50 48 46 45 43 42 41 40 39 39 37 38 43 46 47 48 50 51 52 53 53 52 50 48 46 44 43 42 43 43 45 46 45 44
33 28 32 31 29 37 40 37 38 38 32 29 34 34 23 11 9 8 7 7 9 19 34 34 18 10 15 23 22 15 18 31 41 47 51 54 57 58 58 61 64 62 58 53 50 52 53 53 52 51 49 48 48 47 46 46 44 43 42 41 39 38 37 39 43 45 46 49 52 52 53 55 56 54 52 50 48 46 44 43 43 42 43 44 45 44
26 21 30 30 28 36 37 31 32 33 27 26 28 28 28 21 11 8 7 7 11 21 30 25 13 14 22 23 18 14 23 36 44 51 56 58 58 57 60 64 61 54 49 48 52 53 51 48 47 47 48 49 48 47 45 44 44 43 42 40 38 37 37 39 42 45 47 50 52 53 55 56 56 56 56 54 52 50 47 45 43 42 41 42 44 43
25 20 25 25 27 36 35 29 31 31 24 25 28 29 32 28 16 14 18 21 20 19 18 15 15 22 26 23 18 19 32 43 49 57 61 60 60 62 64 60 51 47 49 54 56 52 48 46 46 48 49 49 48 46 44 44 44 42 41 40 38 38 39 41 44 46 49 51 53 54 55 57 57 58 59 58 56 53 50 46 43 42 41 41 42 42
27 27 25 23 30 36 31 28 29 25 23 27 30 31 29 21 13 18 27 30 24 13 8 13 20 25 24 20 20 26 40 49 55 60 59 59 64 66 61 52 46 51 56 56 53 49 49 49 49 50 50 49 48 47 47 47 45 44 42 41 41 40 41 43 45 48 50 51 53 54 56 58 60 61 62 62 58 52 48 45 42 41 40 39 40 41
27 31 28 25 33 36 28 26 24 19 23 29 27 29 29 19 16 22 19 17 17 10 8 15 22 25 22 17 23 36 47 55 59 59 60 64 66 62 55 48 51 56 55 53 52 50 50 50 51 52 51 50 48 47 46 44 43 42 41 41 42 43 44 45 46 48 50 52 55 57 59 60 62 62 60 57 52 47 44 41 39 39 38 38 39 40
29 29 26 30 37 34 26 25 23 18 23 27 23 28 31 16 14 22 13 8 13 9 9 18 23 24 22 20 31 45 52 57 60 62 66 68 63 57 51 51 55 57 54 53 54 54 54 53 52 52 51 51 49 47 45 43 40 38 35 36 41 45 46 48 49 50 52 55 56 57 57 57 56 54 50 47 43 41 40 39 37 36 37 37 38 39
30 21 20 33 39 32 28 28 22 19 26 33 33 38 38 21 16 23 15 8 11 6 9 18 17 17 22 26 38 49 54 59 61 65 69 64 59 55 51 54 57 55 54 55 55 57 56 54 53 51 50 49 48 46 44 41 38 36 33 34 38 41 42 43 45 47 48 49 49 48 47 46 44 42 40 38 37 36 36 36 35 34 35 36 38 39
32 20 21 38 40 29 26 23 16 19 32 42 43 42 41 34 31 28 16 11 11 6 7 9 9 19 26 28 40 53 56 59 62 67 67 61 59 57 52 54 55 53 55 57 58 60 59 54 52 50 48 46 44 43 40 38 36 34 33 34 35 36 36 36 37 38 39 39 39 39 37 36 35 34 33 32 31 32 32 32 32 32 33 35 37 38
32 22 27 43 42 30 24 18 14 23 36 42 41 37 35 36 35 22 10 15 19 12 9 6 9 21 25 29 46 56 56 60 65 66 64 61 59 55 51 52 53 54 57 57 59 61 60 56 52 49 47 44 42 40 37 35 34 32 32 32 34 35 35 34 34 34 34 32 32 32 31 31 30 30 29 28 28 29 29 30 30 31 32 33 35 37
33 26 32 42 36 28 25 20 20 27 38 42 38 35 34 34 30 15 7 20 25 18 19 19 14 17 26 40 54 56 56 63 66 64 63 60 55 52 52 54 54 57 59 59 61 61 57 53 48 45 44 42 40 38 35 34 32 31 31 30 31 32 32 31 29 28 28 27 27 28 28 28 28 27 26 25 25 25 26 27 28 29 30 31 33 35
30 27 38 43 35 29 26 22 23 30 39 42 37 35 34 31 27 20 18 22 18 16 25 20 11 22 42 52 55 56 61 66 66 64 60 54 52 52 54 57 58 60 61 60 60 57 51 47 43 42 41 40 39 37 34 33 30 29 29 27 27 26 26 26 25 24 25 25 25 25 26 26 27 27 26 25 24 22 22 23 24 26 27 29 31 33
26 25 34 35 27 27 27 25 30 38 41 38 34 34 33 29 27 27 29 24 13 17 28 17 12 34 55 55 55 59 65 68 66 61 54 50 52 54 55 58 60 61 61 59 55 50 47 45 43 41 39 39 38 36 34 32 30 28 27 26 26 25 24 24 24 24 25 24 25 24 25 25 25 25 25 24 24 23 21 20 20 20 22 24 26 29
26 26 28 21 11 12 16 19 29 38 38 34 32 33 31 29 28 29 30 25 19 27 32 20 23 48 60 56 58 63 67 70 66 56 50 50 53 55 57 59 60 60 59 56 51 47 45 44 42 40 39 38 37 35 34 32 30 28 26 25 25 24 24 24 24 25 25 25 26 26 25 25 25 24 24 24 23 22 21 19 17 16 16 17 19 22
28 27 27 24 19 18 20 24 27 31 32 32 31 31 28 25 26 29 29 27 30 35 34 28 34 52 59 56 59 66 69 69 63 54 52 53 54 56 58 58 59 60 57 51 47 45 44 42 40 39 38 37 36 34 33 31 30 27 25 23 23 24 24 24 24 25 26 27 27 27 28 28 28 27 26 25 24 23 21 19 17 14 12 11 11 13
29 28 28 30 31 28 25 27 28 28 30 31 30 28 26 24 27 32 32 32 35 32 33 41 46 49 53 55 59 67 69 65 57 51 51 53 54 56 57 58 59 58 53 48 45 44 42 41 40 39 38 37 35 34 32 30 28 25 23 23 23 24 24 24 25 26 27 28 28 29 30 30 30 29 29 28 27 26 24 23 20 17 14 11 8 6
29 29 31 34 35 29 24 26 30 31 29 28 26 23 26 29 30 35 38 39 39 32 34 46 48 46 50 57 62 67 66 61 54 47 49 52 53 55 57 59 58 54 49 47 44 42 41 40 40 40 39 37 35 34 31 28 25 22 21 22 23 23 23 25 26 27 28 29 30 30 30 30 31 31 31 31 30 29 28 27 25 23 21 18 15 11
29 31 32 36 36 30 25 31 35 30 25 23 19 20 28 30 30 37 43 43 44 41 40 44 47 48 53 59 64 65 60 55 49 46 49 52 53 55 57 57 55 50 47 46 44 42 40 40 40 39 38 37 35 34 31 26 23 21 21 22 22 22 23 25 27 28 29 30 30 30 30 31 32 32 31 31 31 31 30 30 30 29 28 25 23 21
31 32 33 36 38 32 30 36 35 26 21 16 13 22 31 30 33 45 48 45 45 43 41 45 50 54 58 60 63 62 56 49 45 47 51 53 54 57 57 54 51 47 47 45 43 41 40 39 39 39 38 37 35 33 30 25 22 22 22 22 21 22 23 25 26 28 29 29 30 30 30 31 32 32 32 31 30 30 30 30 30 30 29 28 27 26
31 33 34 35 36 34 35 40 34 21 13 9 15 31 35 31 39 49 48 45 44 40 40 46 50 54 60 62 62 61 55 48 45 48 51 52 54 56 55 52 49 47 46 44 42 41 40 39 39 39 38 36 35 33 29 24 22 23 22 21 21 22 23 25 25 26 27 27 28 28 29 29 30 31 31 30 29 28 29 30 29 29 28 28 27 26
31 34 36 33 33 35 37 40 34 16 5 9 24 34 32 33 47 54 53 50 45 39 41 44 46 52 59 61 62 62 56 48 46 48 50 52 54 55 53 50 48 47 45 43 41 40 39 38 38 38 37 36 34 32 28 24 23 23 22 21 21 22 23 24 25 25 25 26 26 26 26 27 27 28 29 28 27 27 27 28 28 27 26 26 26 25
32 35 34 30 30 34 39 43 33 14 7 16 26 28 28 38 51 56 56 53 43 39 43 45 48 54 58 58 60 61 55 48 45 47 49 51 53 53 51 49 47 47 45 42 40 39 38 38 37 36 36 35 33 30 26 22 22 22 22 20 20 21 23 23 24 24 24 24 24 25 25 25 25 26 26 26 25 25 25 25 25 24 24 23 23 22
33 34 32 31 30 30 39 42 26 11 12 20 21 24 32 44 51 53 53 47 38 42 51 51 53 57 57 58 59 58 53 46 43 46 48 49 50 50 50 48 47 46 43 41 40 39 38 37 36 35 35 34 32 29 25 21 20 21 20 19 19 20 21 22 23 22 23 23 23 23 23 23 24 24 23 23 23 23 23 23 23 24 23 23 23 22
33 32 31 32 28 27 32 28 13 10 18 18 20 29 40 49 52 53 53 44 37 46 55 54 55 57 57 59 59 56 51 44 42 45 47 47 49 49 47 46 46 44 42 39 39 38 37 37 36 35 34 33 31 29 25 22 20 19 19 19 19 19 20 21 21 21 22 22 21 21 21 21 22 22 22 21 20 21 22 22 22 23 23 23 23 22
32 31 31 29 26 26 29 25 18 18 16 15 23 35 44 50 49 49 49 40 37 49 55 53 55 58 58 59 59 56 50 43 41 44 46 45 47 48 47 45 44 43 41 38 36 36 36 36 35 35 33 32 31 28 26 23 21 19 18 18 19 19 19 19 20 21 21 20 20 20 20 20 20 21 21 20 19 19 19 21 22 22 22 23 23 22
30 29 28 26 24 26 27 24 18 13 9 16 28 38 44 48 47 47 44 36 39 51 54 52 55 57 57 59 59 57 52 44 41 42 44 44 44 46 46 44 41 40 39 38 35 34 34 34 34 34 32 30 29 27 26 24 22 20 19 18 18 18 18 18 19 20 20 19 19 19 20 20 19 19 19 19 17 16 17 19 20 21 23 24 24 22
31 28 28 26 25 25 23 15 8 6 10 20 31 40 44 45 47 46 37 33 45 53 51 51 54 54 56 58 57 55 52 48 43 41 41 43 43 44 45 43 40 39 37 37 35 33 33 33 32 32 31 29 27 26 25 24 22 21 20 19 19 18 18 19 19 18 18 18 18 19 20 20 19 18 18 18 17 16 16 17 19 21 23 25 25 24
30 29 29 27 26 26 21 15 12 12 15 23 34 43 45 44 45 38 26 33 51 53 47 50 52 51 54 56 55 53 48 45 44 42 41 41 41 42 44 42 40 38 36 36 34 32 31 32 31 31 30 29 27 26 25 24 22 21 21 20 20 20 19 19 19 19 19 19 19 20 21 20 18 18 18 17 17 16 16 17 19 21 23 25 26 25
30 30 29 28 29 28 20 18 21 19 18 27 39 44 44 43 41 32 27 40 52 49 46 48 48 49 52 53 53 52 45 41 41 40 40 41 40 41 42 42 40 37 35 35 34 32 30 29 29 30 29 28 26 25 24 24 22 22 22 21 21 21 20 19 19 19 19 19 19 20 22 22 19 18 18 18 17 16 16 17 19 21 23 24 26 26
29 29 29 29 30 28 24 24 24 20 23 35 42 42 41 40 37 35 38 44 46 45 45 46 46 48 50 51 52 51 44 39 37 37 38 39 39 40 41 41 40 38 34 33 33 32 30 28 28 28 27 26 25 24 24 24 23 22 22 21 21 21 20 20 19 18 18 19 20 21 23 23 21 20 19 18 16 16 16 17 19 20 22 24 26 26
27 27 29 30 29 26 24 21 16 17 29 39 40 39 41 40 38 41 44 42 42 44 44 44 45 47 48 49 51 49 45 39 35 35 36 37 38 39 40 41 42 40 36 33 31 31 30 28 27 27 27 26 25 24 23 23 23 22 21 21 21 21 21 20 19 18 18 18 19 21 22 23 23 22 22 20 17 15 15 16 18 19 21 23 25 26
26 26 27 28 26 22 21 19 16 22 33 37 35 37 39 39 40 43 44 43 43 43 42 43 44 45 46 48 49 48 46 40 35 34 34 36 37 38 39 40 42 41 39 35 31 30 30 29 27 26 26 27 26 24 24 23 22 22 22 22 21 20 20 20 19 19 19 18 18 19 20 22 24 23 23 21 18 16 16 17 18 19 20 23 24 25
28 28 28 28 26 24 25 25 26 30 33 34 35 36 37 39 41 42 43 44 43 42 42 43 43 44 45 47 47 47 46 42 37 35 33 34 36 37 37 39 40 41 41 38 33 30 28 28 27 25 25 26 25 25 24 23 22 22 22 22 22 21 20 19 19 19 19 19 19 19 20 22 23 23 23 22 19 15 16 17 18 18 19 22 23 24
31 31 31 32 31 31 30 29 30 32 32 33 34 35 35 38 40 41 42 43 42 42 42 42 42 43 44 44 45 46 46 43 39 36 33 33 34 35 36 37 39 40 41 40 37 33 28 27 26 25 23 23 23 23 24 24 23 22 22 22 22 22 22 20 19 19 19 19 20 21 21 22 22 22 22 21 18 15 16 18 18 18 19 20 21 23
33 34 34 34 34 34 33 31 31 33 32 31 32 34 36 38 39 40 41 42 42 42 41 41 41 42 41 42 43 44 45 44 41 37 34 33 33 34 35 36 37 39 40 41 40 37 32 28 26 24 24 23 22 22 22 23 23 22 22 22 22 22 23 23 22 21 20 20 21 22 22 23 22 21 21 20 17 15 16 18 18 18 19 20 22 23
33 35 36 36 36 36 34 33 33 33 31 30 32 33 35 37 38 40 40 40 40 41 41 41 41 40 40 40 41 42 44 44 42 39 36 33 32 33 34 35 36 37 38 40 41 40 37 33 28 26 25 24 23 23 22 22 22 22 21 21 21 22 23 23 24 23 23 23 23 22 22 22 21 19 19 19 19 18 18 19 18 19 20 22 24 26
34 35 36 38 39 38 35 34 34 34 33 32 32 33 34 36 38 39 40 40 40 39 40 39 39 39 40 39 40 41 43 43 43 41 38 34 32 32 33 34 35 36 37 38 39 40 40 37 33 30 27 25 25 24 23 22 22 21 22 22 22 22 23 23 23 23 23 23 23 22 22 21 20 18 16 17 19 22 23 22 20 19 20 23 25 27
34 35 36 38 39 38 35 34 35 35 34 33 33 34 34 36 37 39 40 40 39 39 39 38 37 38 39 39 40 40 41 42 42 41 39 36 33 32 32 33 34 35 36 37 38 39 39 39 37 35 31 28 26 25 24 23 22 22 22 22 22 23 23 22 22 22 22 22 21 20 20 19 19 18 16 15 17 20 23 24 23 22 22 23 25 26
34 35 35 35 36 36 35 34 34 34 34 34 33 33 33 35 37 38 39 40 40 39 39 38 38 37 38 40 40 40 40 40 41 40 39 37 34 32 32 32 33 34 35 36 37 38 38 39 39 37 35 33 29 26 24 24 23 23 22 22 22 23 23 23 22 21 21 21 20 19 18 18 18 18 16 16 17 17 18 19 20 21 23 25 25 26
Wind_Direction
360 356 0 5 3 359 358 353 348 346 346 345 341 336 332 331 332 336 340 341 340 334 333 337 333 330 332 334 338 338 335 329 321 306 281 262 252 248 245 242 241 242 246 251 257 265 273 282 289 295 298 299 300 300 299 297 296 296 298 299 300 300 302 304 306 309 311 311 308 304 300 297 296 296 297 298 300 302 303 302 298 293 290 286 283 281
359 1 6 7 1 359 354 348 345 345 344 343 342 336 334 337 335 336 340 340 339 333 331 336 335 332 335 340 343 340 336 331 321 299 266 248 242 243 242 240 240 243 249 259 269 281 292 299 305 308 309 309 309 309 308 306 306 307 307 307 307 305 304 305 309 312 315 315 312 309 306 302 301 300 300 300 301 301 301 300 296 292 288 285 282 280
2 5 9 4 360 359 350 346 345 342 342 345 347 341 338 341 336 333 336 338 337 331 332 338 336 334 341 345 343 341 338 330 311 279 249 240 238 238 238 238 242 250 262 278 293 304 310 314 316 316 315 314 314 313 314 314 313 313 313 313 312 310 309 309 312 315 315 315 313 311 308 306 304 302 301 300 300 299 298 296 293 289 285 281 279 277
4 7 8 3 359 357 351 348 344 340 344 349 351 345 340 341 338 330 332 336 336 333 337 340 333 335 345 346 344 344 337 323 292 258 241 236 236 236 238 243 254 271 291 306 315 319 320 321 320 319 318 317 316 315 315 316 316 315 315 315 314 313 312 313 315 316 317 316 314 311 307 305 303 301 299 298 297 296 295 293 289 285 281 278 275 273
8 7 5 5 0 356 352 348 345 344 346 350 351 346 340 339 337 331 332 337 337 339 346 341 330 334 347 347 347 343 331 307 271 247 239 236 235 239 243 255 278 301 315 321 323 324 324 324 323 323 322 321 320 319 318 317 317 317 317 316 316 315 315 316 316 317 318 317 313 309 305 302 299 297 295 293 291 290 289 288 285 282 278 274 271 269
9 7 4 4 0 357 354 350 352 350 345 347 349 344 340 337 335 335 338 339 338 342 349 346 333 332 343 345 344 340 325 281 255 243 240 241 240 247 259 282 307 317 322 323 324 325 326 326 326 326 326 325 323 322 321 320 320 320 320 319 319 318 318 317 317 317 317 315 311 308 305 301 297 294 291 288 287 286 284 281 279 277 275 272 269 266
10 7 2 2 1 358 355 355 357 351 344 346 347 341 338 336 336 338 342 342 337 337 344 351 353 325 334 339 338 336 317 259 258 252 250 254 255 269 294 312 320 321 322 323 324 326 327 327 327 327 326 326 324 324 323 323 323 322 322 321 320 319 318 317 317 316 315 312 309 306 303 301 298 294 291 288 286 284 281 278 276 273 269 268 267 264
11 5 1 1 1 357 356 357 355 351 345 344 344 339 335 337 339 341 343 344 339 336 339 346 347 323 325 334 335 335 315 259 271 271 269 274 280 300 317 322 324 324 325 326 326 327 327 328 327 327 326 325 324 324 323 323 322 322 321 320 319 317 317 316 315 313 312 309 306 304 302 300 297 294 291 288 285 283 280 278 275 272 267 264 263 261
9 5 2 1 1 0 0 357 353 351 345 341 342 338 334 337 340 340 341 343 339 335 332 340 347 333 322 329 333 342 337 297 291 294 297 307 317 325 328 329 330 330 330 330 329 328 328 328 327 325 323 322 321 321 321 321 320 320 320 318 316 315 314 313 311 309 308 305 303 302 302 300 298 294 291 288 285 283 281 278 276 272 268 264 261 258
12 9 3 1 2 3 360 355 353 352 345 341 340 334 332 337 340 340 341 340 336 329 322 340 349 339 323 330 338 353 356 349 348 342 336 337 336 336 336 335 334 332 331 329 328 327 327 326 324 321 319 318 319 319 319 319 318 318 318 315 313 312 312 311 310 309 308 306 305 304 304 303 300 297 293 289 285 282 281 279 276 274 270 267 262 257
14 11 4 2 4 2 356 353 354 354 347 342 338 336 337 341 344 344 341 336 331 320 328 342 341 331 320 350 349 357 13 21 2 350 344 341 340 339 338 336 333 330 328 327 326 326 324 322 319 317 317 318 319 319 319 318 317 315 314 312 308 307 309 309 307 308 310 309 309 308 307 306 304 302 299 294 288 283 280 278 276 275 272 270 267 260
14 11 6 5 1 357 353 349 349 352 349 343 341 345 345 343 345 350 344 340 335 304 334 336 333 323 302 343 345 356 20 9 352 347 345 342 340 338 334 331 329 326 325 324 323 321 319 316 315 316 316 317 317 318 318 316 314 311 309 308 305 304 306 303 301 304 307 307 308 308 307 307 306 304 303 299 294 288 284 280 277 275 274 272 270 265
13 12 7 6 359 355 352 345 344 349 350 346 348 354 353 342 341 348 344 343 334 320 331 333 330 323 325 334 334 349 6 354 349 347 344 342 338 334 330 327 325 322 321 321 318 316 315 315 316 316 316 316 316 317 316 314 311 308 306 304 302 302 300 295 294 298 301 302 302 303 303 304 304 304 303 301 298 294 289 284 279 276 274 272 271 268
8 11 6 4 0 356 353 350 349 350 354 357 356 357 357 345 331 333 332 334 324 320 328 335 336 335 339 332 326 339 352 346 346 345 341 338 334 329 326 324 322 321 320 319 318 318 318 318 318 318 317 317 316 315 314 311 308 305 304 302 302 300 296 291 291 292 293 295 296 298 300 301 303 303 303 301 299 297 293 287 282 276 273 271 270 269
360 1 359 360 0 356 354 356 352 350 355 358 356 355 354 349 328 306 323 331 317 315 324 336 346 337 334 330 323 334 346 344 343 341 335 331 329 326 324 323 322 323 323 323 324 325 324 322 320 319 318 317 317 316 314 310 307 304 302 301 300 297 292 288 286 286 287 290 293 295 297 299 301 302 302 301 300 298 294 289 283 277 271 268 268 267
351 348 355 358 359 355 353 356 351 350 354 352 351 353 350 345 329 311 321 322 313 309 319 333 338 334 332 332 328 335 343 342 337 333 329 328 327 325 326 327 328 328 329 329 330 331 330 326 322 320 319 319 318 315 312 308 306 304 300 298 295 291 287 284 283 284 287 289 291 294 296 298 300 300 299 299 299 297 293 288 282 276 271 267 265 264
347 346 358 1 357 355 352 353 354 355 355 352 351 351 345 344 349 338 329 327 324 313 316 329 327 332 338 332 326 335 341 338 332 330 330 330 328 328 331 333 333 332 332 333 333 333 331 328 325 325 323 321 318 314 310 306 303 300 297 295 293 289 286 284 284 286 287 289 290 293 294 296 296 296 296 297 296 295 291 286 281 276 271 266 262 261
344 343 356 1 355 355 351 351 358 0 356 356 353 348 347 349 357 351 333 325 333 319 316 331 327 334 343 332 330 340 340 335 332 332 331 330 331 334 338 336 332 332 334 335 334 332 331 330 329 328 324 321 318 315 313 311 308 302 295 291 289 286 285 285 285 285 286 288 290 292 293 293 293 293 294 294 293 291 288 283 279 274 270 265 261 258
347 341 351 357 352 352 353 354 1 360 356 360 354 350 357 359 344 346 341 323 335 321 310 327 329 335 338 334 342 344 338 334 333 332 331 332 335 340 339 331 330 334 336 336 334 332 332 332 330 327 324 321 319 318 316 316 316 312 301 290 286 285 285 285 285 286 287 289 290 291 292 292 292 293 292 291 290 288 285 282 278 272 268 263 259 257
352 339 338 348 350 352 356 358 360 356 354 356 353 352 359 1 339 338 338 330 332 311 308 323 328 336 335 338 345 341 335 334 333 331 333 336 338 339 334 329 332 336 337 337 335 333 333 333 331 327 324 322 321 320 320 319 319 319 311 301 297 296 295 292 291 291 291 292 293 294 295 295 295 295 294 293 290 287 284 281 277 271 266 261 258 256
353 342 326 341 351 358 360 359 356 353 354 353 352 353 354 350 345 340 336 338 334 302 309 322 314 324 331 337 339 335 332 333 332 333 336 338 337 337 334 334 337 339 338 338 336 334 334 335 333 329 327 325 323 323 324 323 322 320 317 313 310 309 306 304 302 301 301 302 303 304 304 304 304 303 301 298 294 289 285 281 276 271 265 261 257 255
352 344 331 339 350 358 360 1 352 349 352 351 351 354 349 343 347 349 336 336 334 316 306 306 299 316 328 334 333 332 331 331 334 336 338 338 337 337 339 340 341 340 340 339 336 335 335 337 335 332 330 330 329 330 329 327 325 322 319 317 315 314 314 314 313 313 315 316 316 317 317 317 317 315 313 309 303 297 290 284 277 271 266 262 259 257
351 347 339 340 347 356 0 0 351 346 347 346 347 348 341 339 347 352 322 324 326 320 318 315 301 310 328 334 332 331 332 333 338 341 340 339 339 340 342 343 343 342 341 340 338 336 336 337 336 335 335 335 336 337 335 332 331 328 326 323 320 320 321 324 325 326 329 330 331 332 331 330 330 328 326 322 315 307 298 290 282 275 269 262 259 258
354 350 344 342 346 353 354 351 346 342 343 343 342 339 336 337 340 341 335 325 315 318 327 321 297 315 330 335 333 332 335 338 341 343 341 340 341 343 344 344 343 342 342 341 339 337 338 340 342 342 342 342 343 344 343 344 343 341 340 338 336 336 337 339 342 344 345 346 346 346 344 343 343 341 339 335 330 323 311 301 291 282 274 267 261 257
358 353 347 347 350 351 350 347 340 338 340 339 335 332 332 331 332 339 343 334 316 328 334 325 296 318 329 335 334 335 340 342 344 345 343 342 342 344 344 344 343 343 343 343 341 341 344 347 349 350 350 350 352 353 354 355 355 354 353 351 350 353 355 356 358 358 358 358 357 357 356 354 353 351 348 346 343 338 330 320 308 297 287 277 268 260
356 352 352 355 349 333 331 328 328 329 331 331 328 327 328 330 334 342 346 342 333 331 331 322 306 318 329 336 336 339 343 343 345 346 344 344 344 345 344 344 344 345 346 345 345 347 351 352 353 355 356 358 359 360 360 0 0 359 359 358 359 3 6 6 6 6 6 7 6 5 4 3 3 1 360 359 356 352 348 340 330 319 306 293 281 271
353 350 350 348 336 323 317 319 327 328 325 326 326 323 325 331 336 343 350 347 337 329 325 327 320 320 329 337 337 340 344 344 345 346 344 345 345 344 344 344 346 347 347 348 349 352 354 355 357 359 0 2 3 3 2 1 1 1 3 6 8 10 12 12 13 14 14 14 13 12 12 11 11 10 11 12 10 8 7 4 358 351 338 324 309 291
349 347 346 342 339 339 332 330 338 336 328 326 324 320 326 333 336 345 351 347 342 333 323 329 330 324 329 337 338 341 344 344 345 346 344 345 345 344 344 347 349 349 348 350 355 356 356 358 359 1 3 4 4 4 3 2 3 5 7 12 14 14 18 21 21 22 21 20 20 20 20 20 19 19 20 21 21 21 21 22 21 21 19 14 4 343
346 345 343 340 343 347 341 340 345 341 331 325 321 323 333 337 340 347 349 346 343 333 319 325 330 328 332 338 340 342 344 343 346 347 345 345 345 345 348 351 351 350 351 355 358 358 359 360 360 1 2 2 3 4 4 5 9 13 14 16 19 21 25 27 27 28 28 27 28 28 27 27 27 27 28 29 30 31 33 36 37 39 42 44 47 49
346 344 342 339 343 350 350 349 350 342 329 323 321 329 337 338 341 346 346 345 341 334 328 330 331 334 338 339 340 345 346 344 346 347 346 346 346 348 352 353 351 352 356 358 359 360 1 0 0 2 1 2 3 5 7 11 16 21 21 22 26 29 30 30 31 33 33 33 33 32 32 32 31 31 33 35 37 39 42 45 47 48 50 52 56 60
344 343 343 338 341 352 355 351 352 344 324 316 320 334 339 340 341 343 344 343 340 337 338 337 335 338 341 341 342 347 348 347 348 348 347 348 349 352 354 353 352 356 359 359 360 1 1 1 1 2 2 3 5 7 11 17 22 25 25 27 31 31 30 31 32 33 33 34 35 34 34 33 33 33 35 37 40 41 42 44 47 49 51 53 56 58
345 343 344 340 339 347 351 351 354 345 312 305 335 342 343 341 339 341 343 342 340 340 340 338 336 337 339 341 345 349 350 350 351 351 349 349 353 354 353 352 354 359 360 360 0 0 1 2 2 2 3 4 6 9 14 19 24 28 28 30 32 30 28 30 31 31 32 32 33 34 34 34 33 34 35 36 39 40 39 39 41 43 46 48 51 52
347 344 346 344 336 341 349 351 352 349 321 337 344 343 342 339 339 341 343 344 345 344 341 337 334 334 338 343 347 348 351 352 352 353 352 352 355 354 352 353 356 358 0 0 360 360 1 2 2 2 3 6 8 11 14 18 22 27 28 30 30 28 27 28 28 29 31 31 32 32 32 32 33 32 32 33 34 35 36 36 37 38 41 42 42 42
348 345 346 344 336 338 346 349 354 11 7 335 337 341 341 339 340 341 342 345 347 345 342 338 336 337 340 345 347 348 351 353 353 354 355 355 354 352 351 355 357 358 360 360 359 0 1 2 4 4 3 5 9 12 15 17 21 24 25 26 27 26 26 28 28 28 30 30 30 30 30 29 30 30 31 31 29 29 30 32 33 36 37 37 35 32
349 347 347 345 339 337 344 351 3 15 333 324 335 343 341 341 341 339 342 348 348 345 345 344 342 343 343 345 348 350 351 354 354 355 357 356 353 352 353 355 357 359 359 359 359 360 360 1 4 5 5 6 8 12 15 18 22 22 21 22 22 22 23 25 25 25 25 25 26 27 28 27 27 27 28 29 30 29 28 29 30 31 30 29 27 24
349 348 347 346 343 339 343 350 354 324 320 332 347 344 341 344 343 340 344 352 352 347 347 346 345 346 346 347 350 351 352 355 356 356 358 357 353 353 355 355 356 358 358 358 359 358 359 1 3 4 7 7 8 12 14 17 22 21 17 18 18 17 19 20 20 21 20 19 20 22 24 25 26 26 25 27 30 30 28 27 26 25 23 20 16 12
350 349 348 347 346 343 338 333 327 324 329 344 348 344 343 343 342 339 339 346 351 348 346 346 347 349 349 350 350 351 352 356 358 358 358 357 354 354 356 356 356 356 356 357 358 356 357 0 2 4 8 8 8 10 12 15 19 16 13 15 15 14 15 16 17 17 16 16 17 18 19 22 25 25 23 25 28 28 25 23 21 20 17 12 5 359
349 348 348 345 343 342 338 334 335 334 332 341 343 343 342 341 342 339 334 340 352 349 345 347 349 349 350 350 351 352 352 354 360 0 357 356 356 356 356 356 355 355 356 356 357 356 356 358 2 4 7 9 9 9 11 14 14 11 10 11 10 10 11 10 11 12 12 13 14 15 17 18 20 20 20 21 23 23 21 19 16 14 12 8 3 359
348 347 348 345 341 340 337 330 318 296 311 332 336 339 343 344 342 340 336 342 350 348 345 349 350 349 349 350 351 352 352 352 357 360 358 357 358 357 357 356 354 354 356 357 357 356 355 357 1 3 5 9 10 11 12 13 12 10 8 5 4 3 2 2 4 6 8 11 11 11 12 14 15 15 12 12 14 15 14 15 13 11 9 9 8 6
348 346 346 345 340 337 331 317 310 307 313 327 333 339 344 344 343 345 342 339 344 347 347 349 350 349 350 350 351 354 353 350 351 356 358 358 358 359 359 358 355 353 355 356 356 356 355 356 359 2 4 8 9 10 11 11 11 9 7 4 2 360 359 360 1 4 6 8 7 7 7 9 11 11 8 6 5 6 7 9 10 9 9 11 12 11
348 346 344 343 340 337 328 311 311 314 320 332 337 341 343 343 345 348 339 333 339 346 348 349 349 350 350 351 352 353 354 351 349 353 356 357 358 1 1 1 358 355 353 355 356 355 356 355 357 360 3 5 7 9 9 9 9 8 6 4 2 360 360 0 1 3 4 5 5 5 6 8 9 8 6 3 0 359 359 360 2 5 9 11 10 10
346 343 342 341 339 337 327 315 314 323 334 337 337 338 342 345 343 339 335 335 340 345 348 349 350 350 351 353 353 353 354 353 350 352 355 356 358 1 2 3 2 358 355 354 354 354 356 355 355 357 359 1 4 7 8 7 6 6 5 3 1 360 360 0 1 2 3 4 4 3 4 6 7 7 6 3 360 356 353 353 356 2 8 10 8 9
343 341 339 339 338 334 327 324 327 329 330 332 334 337 343 345 339 335 337 341 343 344 348 351 351 351 353 354 353 352 353 354 352 353 355 357 359 1 3 4 5 3 360 356 353 354 355 356 355 355 356 358 0 3 7 6 3 2 3 2 1 0 359 359 2 3 3 3 3 2 2 2 3 5 7 5 3 358 353 354 358 1 7 9 7 7
342 339 334 334 335 329 321 322 325 319 321 328 335 338 340 341 339 338 340 343 345 347 349 351 352 353 354 354 354 353 353 354 355 355 356 357 359 1 3 5 6 6 4 0 356 353 354 355 355 353 353 355 356 358 2 4 1 0 360 359 0 0 359 358 358 359 0 1 1 2 1 357 356 360 1 360 1 1 0 1 1 3 8 8 4 3
339 338 332 329 329 324 319 323 326 326 328 332 336 338 339 339 340 340 341 343 346 348 349 351 354 355 354 355 355 353 353 355 356 356 357 358 358 0 3 5 7 8 7 5 1 356 353 354 355 354 353 353 354 355 357 359 359 359 359 358 357 358 358 357 356 355 356 357 357 360 1 357 354 353 353 354 359 5 6 3 1 4 8 5 360 358
335 337 334 331 330 327 329 333 331 330 332 333 333 337 339 340 341 342 343 344 345 347 349 351 354 356 356 355 354 353 354 356 357 357 358 357 358 0 2 5 8 9 9 8 6 2 357 353 353 353 353 352 353 354 354 354 354 355 357 357 356 354 355 355 354 354 353 353 354 355 357 358 355 351 349 353 359 5 3 360 358 360 2 0 357 355
334 335 334 333 330 327 332 336 331 330 333 332 333 337 339 340 342 343 343 344 345 346 349 351 353 356 357 355 355 355 355 356 357 358 358 358 358 360 2 5 8 9 9 10 9 7 3 357 352 351 352 353 354 354 353 352 352 353 354 354 353 353 351 349 347 347 346 346 348 349 351 355 356 353 350 352 358 1 358 355 354 352 353 355 355 357
332 333 333 332 329 328 333 335 331 331 334 333 333 337 339 340 342 342 342 344 345 346 349 351 352 354 356 356 357 356 356 357 357 357 358 359 358 358 1 4 7 9 10 11 11 10 7 3 358 354 352 352 354 354 352 351 351 352 352 352 352 353 351 347 344 341 339 340 341 343 345 351 355 355 352 351 353 354 354 354 351 349 351 353 354 356
331 333 332 330 330 332 336 334 330 331 334 335 336 339 340 340 341 342 342 344 345 347 349 350 351 353 355 357 358 359 359 358 357 357 358 359 358 358 359 2 5 8 10 11 12 12 10 8 5 1 356 354 352 352 351 349 349 350 351 352 353 353 352 349 345 342 340 339 339 339 341 346 351 354 354 353 351 347 347 349 348 346 350 353 354 354
333 334 334 331 330 334 336 333 331 331 333 335 337 338 339 340 341 342 342 343 345 347 349 350 351 352 354 356 359 0 0 359 358 358 358 358 358 358 357 359 3 6 8 10 12 13 13 12 11 7 4 360 354 350 349 349 349 349 350 351 353 353 352 351 349 348 346 344 342 341 341 343 347 349 350 353 353 347 343 345 346 345 348 352 354 353
337 335 336 334 331 333 335 333 332 332 332 334 337 337 338 339 340 341 341 342 344 346 347 349 352 353 355 357 359 0 1 360 360 359 358 358 358 358 357 358 360 3 6 8 9 11 13 14 14 14 11 7 2 355 350 349 349 349 349 350 351 351 351 350 351 353 352 351 350 348 344 343 345 347 346 346 348 346 343 344 347 347 346 348 350 351
Height
3132 3130 3126 3123 3122 3121 3120 3119 3118 3116 3114 3112 3109 3104 3101 3095 3090 3089 3087 3084 3082 3076 3072 3072 3068 3065 3062 3060 3059 3057 3055 3053 3051 3049 3047 3046 3045 3043 3042 3040 3039 3037 3035 3034 3032 3030 3028 3026 3024 3022 3020 3018 3016 3014 3012 3011 3009 3008 3007 3005 3002 3000 2997 2995 2993 2990 2988 2986 2985 2984 2984 2984 2984 2984 2985 2985 2985 2985 2984 2984 2984 2983 2983 2983 2983 2983
3131 3128 3126 3125 3124 3123 3121 3119 3117 3115 3113 3112 3108 3102 3099 3094 3087 3085 3085 3082 3081 3076 3070 3069 3067 3063 3061 3059 3058 3056 3053 3051 3049 3048 3046 3045 3043 3042 3040 3039 3037 3036 3034 3032 3031 3029 3027 3024 3022 3019 3017 3014 3012 3009 3007 3005 3004 3002 3000 2997 2995 2993 2991 2989 2987 2985 2982 2980 2978 2976 2975 2975 2975 2974 2974 2975 2976 2976 2977 2977 2977 2977 2977 2976 2975 2975
3130 3128 3127 3127 3125 3123 3121 3119 3117 3115 3113 3110 3106 3100 3096 3094 3087 3081 3081 3081 3079 3075 3069 3066 3064 3061 3060 3059 3057 3054 3052 3050 3048 3047 3046 3044 3042 3041 3039 3038 3036 3034 3033 3031 3029 3027 3025 3022 3019 3016 3013 3010 3007 3004 3002 2999 2997 2994 2991 2989 2986 2984 2982 2981 2980 2979 2977 2975 2973 2971 2968 2966 2966 2966 2965 2965 2966 2966 2967 2968 2969 2969 2969 2969 2968 2968
3129 3129 3129 3127 3125 3124 3121 3119 3116 3113 3110 3107 3104 3099 3094 3093 3089 3081 3077 3078 3077 3073 3069 3064 3061 3060 3060 3058 3056 3054 3052 3049 3047 3046 3045 3043 3042 3040 3039 3037 3035 3033 3031 3029 3027 3024 3021 3018 3015 3011 3008 3005 3002 2999 2996 2993 2990 2987 2984 2981 2979 2977 2975 2973 2972 2971 2969 2968 2967 2965 2962 2960 2958 2957 2956 2956 2957 2956 2956 2958 2959 2960 2960 2961 2961 2960
3131 3131 3130 3128 3125 3123 3121 3118 3114 3109 3106 3105 3102 3099 3095 3091 3090 3085 3077 3074 3073 3071 3068 3063 3059 3057 3058 3057 3055 3054 3051 3048 3046 3045 3043 3042 3041 3039 3038 3036 3034 3032 3030 3027 3023 3020 3016 3013 3009 3005 3002 2999 2996 2993 2990 2988 2985 2982 2979 2976 2973 2971 2968 2967 2965 2963 2961 2960 2958 2957 2955 2953 2952 2951 2950 2949 2949 2949 2948 2949 2950 2950 2950 2951 2952 2952
3132 3131 3129 3128 3125 3123 3120 3116 3112 3107 3103 3102 3101 3098 3095 3091 3087 3083 3078 3073 3069 3067 3066 3063 3058 3055 3055 3056 3054 3053 3050 3046 3045 3044 3042 3041 3040 3039 3038 3036 3034 3031 3028 3024 3020 3016 3011 3007 3003 2999 2995 2992 2989 2986 2984 2981 2978 2975 2973 2970 2967 2965 2962 2960 2958 2956 2955 2953 2951 2948 2945 2943 2942 2942 2942 2941 2941 2941 2941 2942 2943 2942 2941 2941 2942 2943
3132 3131 3129 3127 3125 3122 3119 3115 3111 3108 3104 3101 3100 3096 3094 3090 3085 3079 3076 3073 3069 3066 3065 3065 3062 3056 3054 3055 3055 3052 3049 3046 3045 3044 3042 3041 3040 3040 3039 3037 3034 3030 3026 3021 3016 3012 3007 3002 2998 2993 2990 2986 2983 2980 2978 2975 2972 2970 2967 2965 2962 2959 2957 2954 2952 2951 2950 2948 2945 2942 2939 2936 2933 2931 2931 2931 2931 2932 2932 2933 2935 2935 2935 2934 2934 2934
3133 3132 3129 3126 3124 3121 3117 3114 3112 3109 3105 3102 3100 3095 3091 3087 3082 3077 3074 3073 3070 3068 3066 3066 3064 3059 3055 3055 3054 3052 3049 3046 3045 3044 3043 3042 3041 3041 3039 3037 3033 3028 3023 3017 3012 3007 3002 2998 2993 2989 2986 2982 2979 2976 2973 2970 2968 2965 2962 2959 2957 2954 2952 2950 2948 2946 2945 2942 2939 2936 2933 2930 2928 2925 2923 2922 2922 2922 2922 2923 2925 2926 2928 2928 2927 2927
3133 3131 3128 3125 3123 3120 3118 3116 3113 3110 3106 3102 3099 3095 3090 3085 3081 3076 3073 3072 3070 3067 3065 3065 3063 3059 3055 3054 3053 3051 3049 3048 3047 3046 3045 3044 3043 3041 3038 3033 3028 3023 3017 3012 3007 3003 2998 2994 2990 2986 2982 2979 2975 2972 2969 2967 2964 2961 2958 2955 2952 2950 2948 2946 2944 2942 2940 2938 2934 2932 2929 2926 2924 2921 2918 2916 2914 2914 2913 2913 2915 2916 2918 2920 2920 2920
3132 3130 3127 3124 3122 3120 3119 3117 3114 3111 3106 3101 3098 3094 3090 3086 3081 3076 3073 3071 3070 3067 3065 3063 3062 3059 3054 3052 3051 3049 3049 3048 3048 3047 3046 3044 3041 3037 3032 3028 3022 3018 3014 3009 3004 3000 2995 2991 2987 2982 2978 2975 2972 2969 2965 2963 2960 2956 2954 2951 2948 2945 2943 2941 2938 2936 2935 2932 2930 2927 2924 2921 2919 2916 2913 2911 2909 2907 2905 2904 2905 2907 2909 2911 2912 2913
3131 3130 3128 3124 3122 3120 3118 3116 3113 3110 3105 3100 3096 3090 3085 3082 3079 3075 3073 3070 3068 3067 3065 3063 3063 3060 3053 3051 3050 3049 3048 3049 3048 3046 3043 3040 3036 3032 3027 3023 3019 3015 3010 3006 3001 2996 2992 2987 2983 2978 2973 2969 2966 2963 2960 2957 2955 2952 2949 2946 2943 2940 2938 2936 2932 2930 2927 2925 2923 2920 2918 2915 2912 2910 2907 2905 2903 2901 2899 2897 2898 2898 2900 2901 2903 2905
3132 3130 3128 3124 3122 3119 3116 3114 3112 3110 3105 3099 3095 3088 3082 3076 3072 3072 3071 3069 3068 3067 3065 3063 3061 3058 3054 3051 3050 3049 3048 3048 3046 3043 3039 3035 3032 3028 3024 3020 3017 3012 3007 3002 2997 2992 2987 2982 2977 2973 2968 2964 2960 2957 2955 2952 2949 2946 2943 2941 2937 2935 2933 2930 2927 2924 2921 2918 2915 2913 2910 2908 2905 2903 2900 2898 2896 2894 2892 2891 2891 2891 2891 2893 2895 2896
3132 3130 3128 3125 3122 3119 3114 3111 3109 3107 3104 3099 3094 3090 3085 3078 3073 3072 3070 3069 3068 3066 3064 3062 3058 3056 3054 3052 3050 3049 3048 3046 3043 3040 3036 3032 3028 3024 3021 3017 3012 3007 3002 2997 2991 2986 2981 2976 2971 2967 2962 2959 2955 2952 2949 2946 2943 2940 2938 2935 2932 2930 2928 2925 2921 2918 2915 2913 2909 2906 2903 2901 2898 2896 2894 2891 2889 2887 2886 2885 2885 2884 2884 2885 2886 2888
3128 3128 3126 3125 3123 3120 3116 3111 3106 3104 3102 3100 3096 3093 3091 3086 3082 3077 3073 3071 3068 3063 3062 3061 3058 3056 3054 3052 3050 3048 3047 3044 3041 3038 3034 3030 3027 3022 3017 3012 3006 3001 2995 2990 2985 2981 2976 2971 2965 2961 2957 2953 2950 2947 2944 2940 2937 2934 2932 2929 2926 2924 2922 2919 2916 2913 2910 2907 2903 2900 2897 2894 2891 2889 2887 2884 2882 2881 2880 2878 2878 2877 2878 2877 2878 2880
3130 3129 3126 3125 3123 3120 3117 3114 3109 3106 3104 3102 3100 3098 3095 3092 3090 3082 3075 3075 3070 3062 3060 3059 3057 3056 3053 3051 3050 3048 3046 3043 3040 3036 3033 3029 3024 3018 3013 3006 3000 2994 2989 2985 2980 2976 2970 2965 2961 2956 2952 2949 2945 2942 2939 2935 2931 2928 2925 2923 2920 2918 2916 2913 2910 2907 2903 2900 2897 2893 2890 2888 2885 2882 2879 2877 2876 2874 2872 2871 2870 2870 2870 2870 2871 2873
3133 3132 3130 3127 3125 3121 3118 3115 3111 3107 3105 3103 3100 3098 3095 3093 3093 3087 3079 3076 3071 3063 3060 3058 3057 3056 3054 3051 3050 3046 3043 3041 3038 3034 3029 3024 3018 3012 3005 2999 2992 2987 2983 2979 2974 2969 2965 2960 2956 2952 2948 2944 2940 2937 2933 2929 2925 2922 2919 2916 2914 2912 2909 2906 2903 2900 2897 2893 2890 2887 2884 2881 2878 2875 2872 2870 2868 2866 2864 2863 2862 2862 2862 2863 2864 2865
3133 3131 3129 3127 3124 3121 3118 3115 3112 3108 3106 3103 3099 3096 3095 3093 3092 3088 3079 3073 3069 3064 3060 3058 3056 3055 3053 3050 3048 3045 3041 3038 3034 3029 3024 3019 3012 3005 2998 2991 2987 2982 2978 2974 2969 2965 2961 2956 2951 2947 2943 2938 2934 2930 2926 2922 2918 2915 2912 2910 2907 2905 2902 2899 2896 2893 2890 2886 2883 2880 2877 2874 2871 2868 2865 2862 2860 2858 2856 2855 2854 2854 2855 2855 2856 2857
3134 3128 3125 3125 3123 3120 3118 3115 3113 3110 3107 3104 3100 3097 3094 3091 3090 3089 3083 3074 3068 3063 3058 3057 3056 3053 3050 3048 3044 3041 3037 3032 3028 3024 3018 3013 3006 2999 2993 2988 2983 2979 2974 2970 2966 2961 2956 2951 2946 2941 2936 2931 2927 2923 2918 2915 2912 2909 2906 2904 2900 2896 2894 2891 2889 2886 2883 2879 2876 2873 2870 2867 2863 2860 2857 2854 2852 2850 2848 2847 2847 2847 2847 2848 2849 2850
3133 3126 3122 3122 3122 3119 3117 3113 3110 3109 3106 3104 3102 3098 3094 3091 3088 3088 3087 3081 3074 3066 3057 3053 3055 3054 3051 3047 3042 3037 3033 3028 3023 3018 3013 3007 3000 2995 2990 2985 2980 2975 2970 2966 2961 2955 2951 2946 2941 2935 2929 2924 2920 2916 2912 2908 2906 2903 2900 2896 2892 2888 2886 2884 2882 2879 2876 2873 2869 2866 2863 2859 2856 2852 2849 2846 2844 2842 2840 2840 2840 2840 2840 2840 2841 2842
3133 3127 3122 3121 3121 3117 3113 3110 3108 3107 3104 3101 3099 3095 3093 3093 3091 3089 3089 3086 3082 3076 3062 3050 3049 3052 3051 3047 3042 3037 3032 3026 3020 3014 3009 3003 2997 2993 2988 2981 2976 2970 2966 2961 2956 2950 2945 2940 2935 2930 2924 2919 2914 2910 2906 2902 2899 2897 2893 2889 2885 2883 2881 2878 2876 2872 2869 2866 2862 2859 2855 2852 2848 2845 2842 2839 2837 2835 2833 2832 2832 2833 2833 2833 2834 2835
3131 3128 3122 3118 3118 3116 3112 3109 3107 3105 3102 3097 3094 3092 3090 3092 3092 3089 3087 3085 3084 3080 3071 3059 3051 3050 3051 3047 3042 3037 3031 3026 3020 3012 3005 3000 2994 2990 2985 2979 2973 2968 2963 2957 2951 2945 2939 2935 2929 2924 2919 2914 2909 2905 2901 2897 2894 2891 2887 2884 2880 2877 2875 2872 2869 2866 2862 2859 2855 2852 2848 2845 2841 2838 2835 2833 2830 2828 2827 2826 2825 2825 2826 2826 2827 2828
3129 3127 3122 3115 3113 3113 3111 3109 3107 3104 3101 3098 3095 3094 3093 3091 3090 3088 3085 3083 3083 3079 3075 3070 3058 3049 3049 3047 3041 3037 3031 3025 3019 3010 3001 2996 2991 2986 2981 2977 2971 2965 2960 2954 2947 2941 2934 2929 2924 2918 2914 2909 2904 2900 2896 2892 2888 2885 2882 2879 2875 2872 2869 2866 2863 2860 2857 2854 2850 2846 2843 2839 2836 2833 2830 2827 2825 2822 2821 2819 2819 2819 2819 2820 2821 2822
3128 3125 3121 3115 3113 3112 3111 3109 3107 3103 3101 3099 3098 3096 3095 3093 3091 3091 3087 3082 3080 3077 3073 3069 3059 3049 3049 3046 3039 3034 3029 3022 3016 3007 2998 2992 2987 2982 2977 2973 2968 2962 2956 2950 2943 2937 2931 2926 2921 2915 2909 2904 2900 2896 2892 2888 2884 2881 2878 2874 2871 2868 2865 2862 2859 2856 2853 2850 2847 2843 2839 2836 2832 2829 2826 2823 2820 2818 2816 2814 2813 2813 2813 2814 2815 2816
3129 3125 3119 3112 3109 3108 3108 3108 3107 3105 3102 3099 3097 3096 3095 3093 3091 3091 3088 3082 3078 3075 3069 3063 3053 3045 3044 3043 3037 3031 3025 3018 3011 3004 2996 2989 2984 2980 2974 2968 2963 2958 2952 2946 2940 2934 2929 2923 2918 2912 2906 2901 2896 2892 2888 2884 2881 2877 2874 2871 2868 2865 2862 2859 2857 2854 2851 2848 2845 2841 2838 2834 2830 2827 2823 2820 2817 2815 2812 2810 2809 2808 2808 2808 2809 2811
3133 3130 3124 3116 3109 3106 3105 3105 3103 3102 3101 3099 3097 3095 3093 3092 3090 3088 3085 3081 3077 3074 3070 3064 3050 3040 3039 3039 3033 3027 3019 3012 3006 3000 2995 2988 2981 2976 2972 2966 2960 2954 2948 2942 2936 2931 2925 2920 2914 2909 2903 2899 2894 2890 2886 2882 2879 2876 2873 2869 2866 2864 2861 2858 2856 2853 2850 2847 2844 2841 2837 2833 2830 2826 2822 2819 2816 2813 2810 2807 2806 2805 2805 2804 2805 2806
3134 3131 3128 3125 3123 3120 3115 3110 3106 3101 3100 3099 3097 3095 3092 3090 3088 3085 3082 3078 3073 3068 3068 3066 3052 3037 3035 3034 3027 3021 3015 3006 3000 2996 2991 2986 2980 2974 2969 2963 2957 2951 2944 2938 2933 2928 2922 2917 2912 2907 2902 2898 2893 2889 2885 2882 2879 2875 2872 2869 2866 2863 2861 2858 2855 2852 2849 2846 2843 2840 2836 2833 2830 2826 2823 2819 2816 2812 2809 2807 2804 2803 2802 2801 2802 2802
3133 3131 3129 3127 3127 3125 3120 3115 3111 3105 3100 3098 3095 3092 3091 3089 3086 3084 3081 3078 3072 3063 3060 3061 3054 3038 3030 3029 3023 3016 3011 3003 2997 2992 2986 2982 2978 2972 2967 2961 2954 2948 2942 2937 2931 2925 2920 2915 2911 2906 2902 2898 2893 2889 2885 2882 2878 2875 2872 2869 2867 2864 2862 2859 2856 2853 2849 2846 2843 2839 2836 2832 2829 2826 2822 2819 2816 2813 2809 2807 2804 2802 2801 2800 2800 2800
3131 3129 3127 3125 3123 3120 3117 3112 3109 3105 3100 3095 3093 3090 3089 3087 3085 3082 3079 3076 3073 3064 3052 3050 3050 3040 3030 3027 3022 3015 3009 3002 2997 2991 2985 2980 2976 2970 2965 2958 2951 2945 2941 2936 2930 2924 2919 2914 2909 2905 2901 2897 2894 2890 2886 2882 2879 2875 2872 2870 2867 2865 2862 2860 2857 2853 2850 2847 2843 2840 2836 2833 2830 2826 2823 2820 2817 2814 2810 2807 2805 2803 2801 2800 2800 2799
3130 3127 3125 3121 3118 3117 3114 3109 3105 3102 3097 3093 3091 3089 3087 3085 3082 3079 3077 3073 3071 3067 3055 3046 3045 3040 3031 3025 3021 3015 3009 3002 2996 2992 2986 2981 2975 2969 2962 2954 2948 2944 2939 2933 2928 2923 2918 2913 2909 2905 2901 2897 2894 2890 2887 2883 2879 2876 2874 2871 2868 2866 2863 2861 2858 2854 2851 2848 2845 2841 2838 2835 2832 2828 2825 2822 2819 2816 2813 2810 2807 2805 2804 2802 2801 2801
3128 3125 3122 3118 3114 3113 3110 3106 3102 3098 3095 3092 3090 3088 3086 3083 3080 3077 3074 3071 3068 3064 3057 3048 3042 3038 3033 3026 3020 3015 3010 3003 2997 2992 2985 2979 2973 2966 2959 2953 2948 2943 2938 2932 2927 2922 2918 2913 2909 2905 2901 2898 2894 2890 2887 2883 2880 2877 2875 2872 2870 2867 2864 2862 2859 2856 2853 2849 2846 2844 2841 2838 2834 2831 2828 2825 2822 2819 2816 2814 2811 2809 2808 2806 2805 2804
3126 3123 3120 3115 3110 3107 3105 3102 3099 3096 3092 3090 3088 3086 3083 3080 3077 3074 3071 3068 3064 3058 3053 3047 3040 3035 3031 3026 3020 3015 3009 3002 2995 2989 2983 2977 2971 2963 2957 2952 2948 2943 2936 2931 2927 2922 2918 2914 2909 2905 2902 2898 2894 2890 2886 2883 2880 2878 2875 2873 2871 2868 2866 2863 2860 2857 2855 2852 2849 2846 2843 2840 2837 2834 2831 2828 2826 2823 2821 2818 2816 2814 2813 2811 2810 2809
3125 3121 3118 3112 3106 3103 3101 3098 3096 3093 3090 3087 3086 3083 3080 3077 3074 3071 3068 3065 3060 3054 3049 3045 3038 3031 3026 3022 3017 3012 3006 2999 2992 2987 2981 2975 2968 2961 2957 2952 2947 2941 2936 2931 2927 2922 2918 2914 2909 2905 2902 2898 2894 2890 2887 2884 2881 2879 2876 2874 2872 2869 2867 2864 2861 2859 2856 2854 2851 2848 2845 2843 2840 2837 2834 2832 2829 2827 2825 2823 2820 2819 2817 2815 2814 2813
3124 3120 3115 3111 3105 3100 3098 3095 3092 3088 3085 3085 3085 3082 3078 3075 3071 3066 3064 3061 3057 3052 3047 3043 3038 3032 3027 3021 3013 3007 3002 2996 2990 2985 2979 2972 2966 2962 2958 2952 2946 2941 2936 2931 2927 2923 2919 2915 2910 2906 2902 2898 2895 2891 2887 2885 2882 2879 2878 2876 2873 2871 2868 2866 2863 2861 2858 2856 2853 2851 2848 2845 2842 2840 2837 2835 2832 2830 2828 2826 2824 2822 2820 2819 2818 2816
3123 3119 3115 3111 3105 3099 3095 3092 3086 3083 3083 3085 3085 3082 3078 3075 3070 3063 3059 3057 3054 3051 3048 3043 3039 3034 3027 3020 3012 3004 2999 2994 2989 2984 2978 2971 2966 2962 2957 2951 2946 2940 2936 2932 2928 2924 2920 2916 2912 2908 2903 2899 2896 2892 2889 2886 2883 2881 2879 2877 2874 2872 2870 2867 2865 2862 2860 2857 2855 2852 2850 2847 2845 2842 2839 2837 2835 2833 2831 2829 2827 2825 2823 2822 2820 2819
3122 3118 3114 3110 3105 3099 3094 3088 3083 3083 3087 3086 3083 3081 3079 3075 3069 3063 3060 3059 3054 3049 3045 3041 3036 3029 3022 3016 3011 3004 2999 2995 2990 2984 2978 2972 2968 2963 2956 2951 2945 2940 2936 2932 2928 2924 2921 2917 2913 2909 2904 2900 2897 2894 2891 2888 2885 2882 2880 2878 2876 2873 2871 2869 2867 2864 2862 2859 2857 2854 2852 2849 2847 2844 2842 2839 2837 2835 2833 2831 2829 2827 2825 2824 2822 2821
3121 3117 3113 3110 3105 3099 3095 3093 3091 3089 3087 3084 3081 3080 3076 3072 3067 3061 3056 3055 3052 3046 3041 3037 3031 3025 3019 3013 3009 3003 2999 2995 2989 2984 2978 2974 2968 2962 2956 2951 2945 2941 2937 2933 2928 2924 2921 2917 2913 2910 2905 2901 2897 2894 2891 2888 2886 2884 2882 2879 2877 2875 2872 2870 2868 2866 2864 2861 2859 2856 2854 2851 2849 2846 2844 2842 2839 2837 2835 2833 2831 2829 2827 2826 2824 2823
3121 3117 3114 3110 3106 3102 3097 3095 3092 3087 3083 3082 3081 3078 3074 3070 3066 3060 3053 3051 3050 3045 3039 3034 3028 3022 3017 3012 3007 3001 2997 2994 2989 2983 2978 2974 2968 2962 2956 2951 2946 2942 2938 2934 2930 2926 2922 2918 2914 2910 2906 2902 2898 2895 2892 2889 2887 2885 2883 2881 2878 2876 2873 2871 2869 2867 2865 2862 2860 2858 2855 2852 2850 2848 2845 2843 2841 2839 2837 2835 2833 2831 2829 2827 2826 2824
3120 3117 3114 3111 3108 3104 3100 3094 3088 3084 3082 3081 3080 3078 3075 3070 3065 3060 3054 3049 3047 3043 3038 3033 3027 3020 3015 3010 3005 2998 2993 2991 2989 2983 2978 2974 2968 2962 2956 2952 2947 2943 2938 2934 2930 2926 2923 2919 2915 2911 2907 2903 2900 2896 2893 2890 2888 2886 2884 2881 2879 2877 2875 2872 2870 2868 2865 2863 2861 2858 2856 2853 2851 2849 2847 2844 2842 2840 2838 2836 2834 2832 2830 2828 2826 2824
3119 3116 3114 3111 3107 3105 3102 3098 3094 3088 3083 3081 3080 3078 3075 3070 3064 3058 3051 3046 3046 3044 3038 3032 3026 3020 3015 3009 3003 2997 2990 2986 2984 2983 2978 2973 2967 2961 2956 2951 2947 2943 2939 2934 2930 2926 2922 2919 2915 2912 2908 2904 2901 2897 2894 2891 2889 2887 2884 2882 2880 2878 2875 2873 2871 2868 2866 2863 2861 2858 2856 2853 2851 2850 2848 2846 2843 2841 2839 2837 2835 2833 2831 2829 2826 2824
3118 3114 3112 3109 3106 3103 3101 3098 3095 3089 3084 3082 3079 3075 3072 3068 3064 3059 3052 3045 3044 3043 3037 3031 3026 3021 3015 3010 3003 2997 2991 2985 2982 2980 2977 2972 2967 2962 2956 2951 2946 2941 2938 2934 2930 2926 2923 2919 2915 2912 2908 2904 2901 2898 2895 2892 2890 2887 2885 2882 2880 2878 2876 2873 2871 2869 2866 2863 2861 2859 2856 2854 2852 2850 2848 2846 2844 2842 2840 2838 2836 2834 2832 2829 2827 2824
3116 3113 3110 3107 3104 3101 3099 3095 3091 3087 3083 3081 3077 3073 3070 3066 3062 3060 3057 3049 3043 3041 3036 3030 3025 3020 3015 3009 3003 2997 2993 2988 2983 2979 2975 2972 2967 2962 2956 2951 2946 2941 2937 2933 2929 2926 2923 2919 2915 2911 2908 2905 2901 2898 2895 2893 2890 2888 2885 2883 2880 2878 2876 2873 2871 2869 2866 2864 2862 2859 2857 2855 2852 2850 2848 2846 2844 2842 2840 2838 2836 2834 2832 2830 2827 2825
3115 3112 3109 3106 3102 3099 3096 3092 3086 3082 3079 3078 3075 3072 3069 3065 3061 3060 3058 3052 3044 3039 3035 3030 3025 3020 3014 3009 3003 2998 2993 2989 2984 2980 2976 2971 2966 2961 2956 2951 2946 2941 2936 2932 2929 2925 2922 2918 2915 2912 2908 2905 2902 2899 2896 2893 2890 2888 2885 2883 2880 2878 2875 2873 2871 2869 2867 2864 2862 2860 2857 2855 2853 2850 2848 2847 2845 2843 2840 2838 2836 2834 2832 2830 2827 2825
3115 3112 3108 3105 3102 3098 3095 3090 3085 3081 3078 3077 3075 3070 3067 3065 3062 3057 3054 3050 3044 3038 3033 3029 3024 3018 3013 3008 3003 2998 2993 2989 2984 2979 2975 2971 2966 2961 2956 2950 2945 2940 2935 2931 2928 2925 2921 2917 2914 2910 2907 2904 2901 2898 2896 2893 2890 2888 2885 2883 2880 2878 2875 2873 2871 2869 2867 2865 2862 2860 2858 2855 2853 2851 2849 2847 2845 2843 2841 2839 2837 2835 2832 2830 2828 2825
3115 3113 3109 3106 3103 3099 3095 3092 3089 3085 3080 3077 3074 3070 3066 3063 3060 3055 3050 3046 3042 3037 3032 3028 3023 3017 3012 3007 3002 2997 2993 2988 2983 2978 2974 2970 2965 2961 2955 2950 2945 2940 2935 2931 2927 2924 2920 2917 2913 2910 2906 2903 2900 2897 2894 2892 2890 2887 2885 2882 2880 2878 2876 2874 2871 2869 2867 2865 2863 2861 2858 2856 2853 2850 2849 2847 2845 2842 2841 2839 2837 2835 2833 2830 2828 2826
3114 3112 3109 3106 3103 3100 3095 3091 3088 3084 3079 3075 3072 3069 3066 3062 3058 3053 3048 3043 3039 3035 3031 3026 3021 3016 3011 3006 3002 2997 2992 2986 2981 2976 2973 2969 2965 2960 2955 2950 2945 2939 2935 2930 2926 2923 2919 2916 2913 2909 2906 2902 2899 2896 2894 2891 2889 2887 2885 2882 2880 2877 2876 2874 2871 2869 2867 2865 2863 2861 2859 2856 2853 2850 2848 2846 2844 2842 2841 2839 2837 2835 2833 2831 2829 2826
3111 3109 3106 3102 3099 3095 3091 3087 3084 3080 3077 3073 3070 3067 3064 3060 3056 3051 3046 3041 3037 3033 3029 3025 3020 3015 3010 3005 3001 2996 2991 2985 2980 2975 2972 2968 2964 2960 2955 2950 2945 2940 2935 2930 2926 2922 2919 2915 2912 2909 2906 2903 2900 2896 2893 2891 2888 2886 2884 2881 2879 2877 2875 2873 2871 2869 2867 2865 2863 2860 2858 2856 2854 2851 2848 2846 2844 2842 2840 2838 2836 2834 2833 2831 2829 2827
3108 3105 3102 3098 3095 3091 3087 3085 3082 3078 3075 3072 3068 3065 3061 3057 3053 3049 3045 3041 3036 3032 3027 3023 3018 3014 3010 3005 3001 2995 2990 2984 2979 2975 2971 2967 2963 2959 2955 2950 2945 2940 2935 2931 2926 2922 2918 2914 2911 2908 2906 2902 2899 2896 2893 2890 2888 2885 2883 2881 2878 2876 2874 2872 2870 2868 2866 2864 2862 2860 2858 2856 2854 2851 2849 2846 2844 2843 2841 2838 2836 2834 2832 2831 2828 2826
3105 3102 3099 3095 3092 3088 3085 3082 3079 3076 3073 3070 3067 3063 3059 3055 3051 3047 3043 3039 3035 3030 3025 3021 3016 3013 3009 3005 3000 2995 2988 2983 2978 2973 2969 2965 2962 2958 2954 2950 2945 2941 2936 2931 2926 2922 2917 2913 2910 2906 2903 2901 2898 2895 2892 2890 2887 2885 2882 2880 2878 2875 2873 2871 2869 2867 2865 2863 2861 2859 2857 2855 2853 2851 2849 2846 2844 2842 2841 2839 2837 2834 2832 2829 2826 2824
3104 3101 3097 3092 3088 3085 3082 3079 3075 3073 3070 3067 3064 3061 3057 3053 3049 3045 3041 3037 3033 3029 3024 3020 3015 3011 3007 3004 2999 2993 2988 2982 2977 2972 2968 2964 2961 2957 2954 2950 2945 2941 2937 2932 2927 2922 2918 2913 2909 2905 2901 2899 2896 2894 2891 2888 2886 2883 2881 2879 2877 2875 2873 2871 2868 2866 2864 2862 2860 2858 2855 2854 2852 2850 2849 2847 2844 2841 2839 2837 2836 2834 2832 2829 2826 2823
3103 3099 3095 3090 3085 3082 3080 3077 3073 3069 3067 3064 3060 3057 3054 3050 3046 3042 3038 3034 3031 3027 3023 3019 3015 3010 3005 3001 2997 2992 2987 2982 2977 2972 2967 2963 2960 2956 2953 2949 2945 2941 2937 2933 2928 2924 2919 2914 2909 2905 2900 2897 2894 2892 2890 2887 2884 2882 2879 2877 2875 2873 2871 2870 2868 2865 2863 2861 2859 2857 2855 2853 2851 2849 2848 2846 2844 2842 2839 2836 2833 2832 2830 2829 2826 2824
3101 3098 3094 3090 3085 3081 3078 3074 3071 3067 3064 3061 3058 3055 3051 3048 3044 3040 3036 3032 3028 3024 3021 3017 3013 3009 3004 2999 2994 2990 2986 2982 2978 2973 2968 2964 2960 2956 2952 2948 2944 2940 2936 2932 2928 2924 2920 2916 2911 2906 2901 2897 2894 2891 2888 2886 2883 2881 2878 2876 2874 2872 2870 2868 2866 2864 2862 2860 2858 2856 2854 2852 2850 2849 2847 2845 2844 2842 2840 2837 2834 2830 2828 2826 2825 2824